GW6253 Weather Reports


Display with metric or nautical units.
time (UTC)temp
F
wind
direction
speed
MPH
gust
MPH
rain 1hr
in
rain 24hr
in
rain mn
in
humidity
%
barometer
mb
20260505211157 63 196 1.0 4.0 0.00 0.00 0.00 71 1016.0
20260505210656 63 311 0.0 2.0 0.00 0.00 0.00 72 1016.0
20260505210156 62 353 4.0 6.0 0.00 0.00 0.00 72 1016.0
20260505205656 63 24 4.0 7.0 0.00 0.00 0.00 72 1016.0
20260505205200 63 38 3.0 4.0 0.00 0.00 0.00 72 1016.0
20260505204656 63 358 2.0 2.0 0.00 0.00 0.00 70 1016.0
20260505204157 63 53 3.0 5.0 0.00 0.00 0.00 70 1017.0
20260505203656 63 343 2.0 3.0 0.00 0.00 0.00 70 1017.0
20260505203156 62 347 2.0 3.0 0.00 0.00 0.00 72 1017.0
20260505202658 62 324 2.0 3.0 0.00 0.00 0.00 72 1016.0
20260505202156 62 8 2.0 3.0 0.00 0.00 0.00 72 1016.0
20260505201656 62 352 1.0 2.0 0.00 0.00 0.00 72 1017.0
20260505201157 61 312 1.0 2.0 0.00 0.00 0.00 73 1017.0
20260505200658 62 52 3.0 5.0 0.00 0.00 0.00 73 1017.0
20260505200157 62 22 2.0 4.0 0.00 0.00 0.00 73 1017.0
20260505195657 62 38 4.0 5.0 0.00 0.00 0.00 72 1017.0
20260505195156 62 30 2.0 4.0 0.00 0.00 0.00 74 1017.0
20260505194656 62 56 2.0 4.0 0.00 0.00 0.00 73 1017.0
20260505194157 62 28 4.0 6.0 0.00 0.00 0.00 71 1017.0
20260505193657 62 1 2.0 4.0 0.00 0.00 0.00 72 1017.0
20260505193156 62 353 2.0 5.0 0.00 0.00 0.00 72 1017.0
20260505192658 62 342 1.0 2.0 0.00 0.00 0.00 73 1017.0
20260505192156 61 3 2.0 4.0 0.00 0.00 0.00 73 1017.0
20260505191657 61 18 3.0 4.0 0.00 0.00 0.00 74 1017.0
20260505191156 61 59 1.0 2.0 0.00 0.00 0.00 75 1017.0
20260505190657 61 17 2.0 4.0 0.00 0.00 0.00 74 1017.0
20260505190157 60 90 1.0 2.0 0.00 0.00 0.00 74 1017.0
20260505185657 60 30 2.0 3.0 0.00 0.00 0.00 74 1017.0
20260505185157 60 10 2.0 3.0 0.00 0.00 0.00 74 1017.0
20260505184656 60 35 3.0 5.0 0.00 0.00 0.00 74 1017.0
20260505184157 60 322 0.0 2.0 0.00 0.00 0.00 75 1017.0
20260505183656 60 31 2.0 4.0 0.00 0.00 0.00 75 1017.0
20260505183156 60 28 1.0 2.0 0.00 0.00 0.00 76 1017.0
20260505182656 60 37 3.0 4.0 0.00 0.00 0.00 75 1017.0
20260505182156 60 11 3.0 4.0 0.00 0.00 0.00 75 1017.0
20260505181657 61 12 2.0 3.0 0.00 0.00 0.00 73 1017.0
20260505181156 60 338 1.0 3.0 0.00 0.00 0.00 74 1017.0
20260505180657 60 350 1.0 2.0 0.00 0.00 0.00 75 1016.0
20260505180158 60 305 0.0 1.0 0.00 0.00 0.00 74 1016.0
20260505175656 60 2 1.0 1.0 0.00 0.00 0.00 76 1017.0
20260505175157 59 15 2.0 2.0 0.00 0.00 0.00 75 1017.0
20260505174658 59 337 1.0 2.0 0.00 0.00 0.00 76 1016.0
20260505174157 60 164 2.0 3.0 0.00 0.00 0.00 75 1016.0
20260505173658 59 12 2.0 2.0 0.00 0.00 0.00 75 1016.0
20260505173156 59 13 4.0 5.0 0.00 0.00 0.00 75 1016.0
20260505172657 59 50 1.0 1.0 0.00 0.00 0.00 76 1016.0
20260505172156 59 357 2.0 2.0 0.00 0.00 0.00 75 1016.0
20260505171656 59 358 0.0 1.0 0.00 0.00 0.00 77 1016.0
20260505171156 59 30 2.0 3.0 0.00 0.00 0.00 76 1016.0
20260505170657 58 333 2.0 2.0 0.00 0.00 0.00 76 1016.0
20260505170157 58 83 0.0 1.0 0.00 0.00 0.00 78 1016.0
20260505165657 58 49 1.0 2.0 0.00 0.00 0.00 78 1016.0
20260505165157 58 47 3.0 3.0 0.00 0.00 0.00 78 1016.0
20260505164657 58 36 1.0 2.0 0.00 0.00 0.00 77 1016.0
20260505164156 58 26 2.0 2.0 0.00 0.00 0.00 78 1016.0
20260505163657 57 1 1.0 1.0 0.00 0.00 0.00 78 1016.0
20260505163157 57 359 1.0 1.0 0.00 0.00 0.00 80 1016.0
20260505162656 57 16 3.0 3.0 0.00 0.00 0.00 79 1016.0
20260505162157 57 26 2.0 2.0 0.00 0.00 0.00 79 1016.0
20260505161657 56 13 2.0 2.0 0.00 0.00 0.00 80 1016.0
20260505161157 56 329 2.0 2.0 0.00 0.00 0.00 81 1016.0
20260505160656 56 340 2.0 3.0 0.00 0.00 0.00 80 1016.0
20260505160157 57 342 2.0 3.0 0.00 0.00 0.00 80 1016.0
20260505153156 56 345 1.0 2.0 0.00 0.00 0.00 81 1016.0
20260505152656 56 359 2.0 2.0 0.00 0.00 0.00 81 1016.0
20260505152158 56 21 0.0 1.0 0.00 0.00 0.00 82 1016.0
20260505151657 56 359 2.0 2.0 0.00 0.00 0.00 81 1016.0
20260505151156 56 349 1.0 2.0 0.00 0.00 0.00 82 1016.0
20260505150657 55 328 1.0 2.0 0.00 0.00 0.00 82 1016.0
20260505150158 55 13 1.0 1.0 0.00 0.00 0.00 83 1016.0
20260505140159 54 354 1.0 2.0 0.00 0.00 0.00 85 1016.0
20260505130157 54 355 1.0 2.0 0.00 0.00 0.00 85 1015.0
20260505124658 54 344 1.0 2.0 0.00 0.00 0.00 85 1015.0
20260505124156 54 6 2.0 2.0 0.00 0.00 0.00 86 1015.0
20260505123656 54 8 2.0 2.0 0.00 0.00 0.00 86 1015.0
20260505123157 54 328 1.0 2.0 0.00 0.00 0.00 86 1015.0
20260505122656 54 357 2.0 2.0 0.00 0.00 0.00 87 1015.0
20260505122157 54 353 1.0 2.0 0.00 0.00 0.00 87 1015.0
20260505121658 54 336 1.0 2.0 0.00 0.00 0.00 86 1015.0
20260505121157 54 354 1.0 2.0 0.00 0.00 0.00 86 1015.0
20260505120656 54 350 1.0 2.0 0.00 0.00 0.00 86 1015.0
20260505120156 54 13 0.0 1.0 0.00 0.00 0.00 86 1015.0
20260505115656 54 345 1.0 2.0 0.00 0.00 0.00 86 1015.0
20260505115202 54 336 1.0 2.0 0.00 0.00 0.00 86 1015.0
20260505114658 54 338 1.0 2.0 0.00 0.00 0.00 86 1015.0
20260505114156 54 354 1.0 2.0 0.00 0.00 0.00 86 1015.0
20260505113656 54 4 2.0 2.0 0.00 0.00 0.00 86 1015.0
20260505113157 54 3 1.0 2.0 0.00 0.00 0.00 86 1015.0
20260505112656 54 355 1.0 2.0 0.00 0.00 0.00 86 1015.0
20260505112157 54 353 1.0 2.0 0.00 0.00 0.00 86 1015.0
20260505111657 54 340 1.0 2.0 0.00 0.00 0.00 86 1015.0
20260505111159 54 338 1.0 2.0 0.00 0.00 0.00 85 1015.0
20260505110657 54 340 1.0 2.0 0.00 0.00 0.00 85 1015.0
20260505110157 54 336 1.0 2.0 0.00 0.00 0.00 86 1015.0
20260505102156 54 344 2.0 3.0 0.00 0.00 0.00 87 1015.0
20260505101657 54 355 1.0 2.0 0.00 0.00 0.00 87 1015.0
20260505101157 54 354 1.0 2.0 0.00 0.00 0.00 86 1015.0
20260505100656 54 309 1.0 2.0 0.00 0.00 0.00 86 1015.0
20260505100156 54 355 1.0 3.0 0.00 0.00 0.00 87 1015.0
20260505095656 54 339 2.0 2.0 0.00 0.00 0.00 86 1015.0
20260505095156 54 3 1.0 2.0 0.00 0.00 0.00 87 1015.0
20260505094656 54 343 1.0 2.0 0.00 0.00 0.00 86 1015.0
20260505094156 54 347 1.0 4.0 0.00 0.00 0.00 87 1015.0
20260505093656 54 354 1.0 2.0 0.00 0.00 0.00 87 1015.0
20260505093158 54 343 1.0 2.0 0.00 0.00 0.00 87 1015.0
20260505092658 54 346 1.0 2.0 0.00 0.00 0.00 86 1015.0
20260505092157 54 330 1.0 1.0 0.00 0.00 0.00 87 1015.0
20260505091656 54 0 2.0 2.0 0.00 0.00 0.00 87 1015.0
20260505091157 54 320 1.0 2.0 0.00 0.00 0.00 87 1015.0
20260505090657 54 347 1.0 2.0 0.00 0.00 0.00 87 1014.0
20260505090156 54 344 0.0 2.0 0.00 0.00 0.00 88 1014.0
20260505085657 54 342 1.0 2.0 0.00 0.00 0.00 88 1014.0
20260505085157 54 351 1.0 2.0 0.00 0.00 0.00 87 1014.0
20260505084657 54 346 1.0 2.0 0.00 0.00 0.00 87 1014.0
20260505084156 54 332 0.0 1.0 0.00 0.00 0.00 87 1014.0
20260505083657 54 327 1.0 2.0 0.00 0.00 0.00 88 1014.0
20260505083156 54 48 1.0 2.0 0.00 0.00 0.00 87 1015.0
20260505082208 54 89 0.0 2.0 0.00 0.00 0.00 88 1015.0
20260505081658 54 7 1.0 1.0 0.00 0.00 0.00 88 1014.0
20260505081157 54 346 2.0 2.0 0.00 0.00 0.00 88 1014.0
20260505080656 54 349 1.0 2.0 0.00 0.00 0.00 88 1014.0
20260505080158 54 345 2.0 2.0 0.00 0.00 0.00 88 1015.0
20260505075657 54 0 1.0 2.0 0.00 0.00 0.00 88 1015.0
20260505075156 54 342 1.0 2.0 0.00 0.00 0.00 89 1014.0
20260505074656 53 321 1.0 2.0 0.00 0.00 0.00 89 1014.0
20260505074156 53 325 1.0 3.0 0.00 0.00 0.00 89 1014.0
20260505073657 53 345 1.0 2.0 0.00 0.00 0.00 89 1014.0
20260505073156 53 345 1.0 2.0 0.00 0.00 0.00 89 1014.0
20260505072656 53 320 1.0 2.0 0.00 0.00 0.00 89 1014.0
20260505072157 53 334 1.0 2.0 0.00 0.00 0.00 89 1014.0
20260505071656 53 336 2.0 4.0 0.00 0.00 0.00 89 1014.0
20260505071156 53 324 1.0 2.0 0.00 0.00 0.00 89 1014.0
20260505070656 53 320 2.0 6.0 0.00 0.00 0.00 89 1014.0
20260505070158 53 345 1.0 2.0 0.00 0.00 0.00 89 1014.0
20260505065656 53 289 2.0 4.0 0.00 0.00 0.00 89 1014.0
20260505065159 53 335 1.0 2.0 0.00 0.00 0.00 89 1014.0
20260505064656 53 311 2.0 4.0 0.00 0.00 0.00 89 1014.0
20260505064156 53 319 1.0 2.0 0.00 0.00 0.00 89 1014.0
20260505063658 53 319 2.0 4.0 0.00 0.00 0.00 89 1014.0
20260505063157 53 349 1.0 2.0 0.00 0.00 0.00 89 1014.0
20260505062656 53 332 1.0 2.0 0.00 0.00 0.00 89 1014.0
20260505062157 53 303 2.0 5.0 0.00 0.00 0.00 89 1014.0
20260505061657 53 319 2.0 4.0 0.00 0.00 0.00 89 1014.0
20260505061157 53 304 1.0 2.0 0.00 0.00 0.00 89 1014.0
20260505060656 53 335 1.0 2.0 0.00 0.00 0.00 88 1014.0
20260505060156 53 305 1.0 2.0 0.00 0.00 0.00 88 1014.0
20260505055656 53 328 1.0 2.0 0.00 0.00 0.00 88 1014.0
20260505055156 54 321 1.0 2.0 0.00 0.00 0.00 88 1014.0
20260505054657 54 337 1.0 2.0 0.00 0.00 0.00 87 1014.0
20260505054157 54 259 2.0 3.0 0.00 0.00 0.00 87 1014.0
20260505053656 54 299 2.0 3.0 0.00 0.00 0.00 87 1014.0
20260505053156 54 298 1.0 4.0 0.00 0.00 0.00 87 1014.0
20260505052656 54 316 1.0 2.0 0.00 0.00 0.00 87 1014.0
20260505052156 54 300 1.0 2.0 0.00 0.00 0.00 87 1014.0
20260505051656 54 277 2.0 4.0 0.00 0.00 0.00 86 1014.0
20260505051156 54 283 3.0 6.0 0.00 0.00 0.00 86 1014.0
20260505050657 54 286 2.0 6.0 0.00 0.00 0.00 86 1014.0
20260505050157 54 259 3.0 7.0 0.00 0.00 0.00 86 1014.0
20260505041657 55 280 2.0 5.0 0.00 0.00 0.00 84 1013.0
20260505041157 55 282 2.0 3.0 0.00 0.00 0.00 84 1013.0
20260505040656 55 282 2.0 4.0 0.00 0.00 0.00 84 1013.0
20260505040156 55 271 2.0 4.0 0.00 0.00 0.00 84 1013.0
20260505035656 56 293 4.0 9.0 0.00 0.00 0.00 83 1013.0
20260505035156 56 275 4.0 9.0 0.00 0.00 0.00 83 1013.0
20260505034656 56 301 4.0 9.0 0.00 0.00 0.00 83 1013.0
20260505034156 56 326 1.0 4.0 0.00 0.00 0.00 83 1013.0
20260505033656 56 309 4.0 6.0 0.00 0.00 0.00 82 1013.0
20260505033156 56 300 3.0 5.0 0.00 0.00 0.00 82 1013.0
20260505032656 56 289 2.0 6.0 0.00 0.00 0.00 82 1012.0
20260505032156 57 325 2.0 3.0 0.00 0.00 0.00 82 1012.0
20260505031656 57 338 2.0 7.0 0.00 0.00 0.00 82 1012.0
20260505031156 57 272 2.0 6.0 0.00 0.00 0.00 81 1012.0
20260505030657 58 247 1.0 2.0 0.00 0.00 0.00 81 1012.0
20260505030158 58 296 2.0 5.0 0.00 0.00 0.00 80 1012.0
20260505025656 58 294 2.0 6.0 0.00 0.00 0.00 80 1012.0
20260505025158 59 302 2.0 3.0 0.00 0.00 0.00 79 1012.0
20260505024658 59 303 2.0 5.0 0.00 0.00 0.00 78 1012.0
20260505024159 59 288 2.0 5.0 0.00 0.00 0.00 78 1012.0
20260505023657 60 300 1.0 3.0 0.00 0.00 0.00 77 1012.0
20260505023158 61 278 2.0 7.0 0.00 0.00 0.00 76 1012.0
20260505022658 61 312 3.0 6.0 0.00 0.00 0.00 74 1012.0
20260505022158 61 313 2.0 6.0 0.00 0.00 0.00 74 1012.0
20260505021658 61 282 2.0 3.0 0.00 0.00 0.00 74 1012.0
20260505021158 62 301 2.0 7.0 0.00 0.00 0.00 74 1012.0
20260505020658 62 311 3.0 4.0 0.00 0.00 0.00 74 1012.0
20260505020157 62 267 4.0 8.0 0.00 0.00 0.00 72 1012.0
20260505015656 62 306 3.0 8.0 0.00 0.00 0.00 73 1012.0
20260505015156 63 328 3.0 8.0 0.00 0.00 0.00 73 1012.0
20260505014656 63 288 2.0 4.0 0.00 0.00 0.00 72 1012.0
20260505014156 63 323 4.0 7.0 0.00 0.00 0.00 73 1012.0
20260505013656 63 307 4.0 7.0 0.00 0.00 0.00 73 1012.0
20260505013157 64 318 4.0 9.0 0.00 0.00 0.00 72 1012.0
20260505012656 64 313 5.0 11.0 0.00 0.00 0.00 71 1012.0
20260505012157 64 310 5.0 10.0 0.00 0.00 0.00 72 1012.0
20260505011656 64 291 6.0 10.0 0.00 0.00 0.00 71 1012.0
20260505011156 65 308 2.0 6.0 0.00 0.00 0.00 70 1012.0
20260505010656 65 319 3.0 9.0 0.00 0.00 0.00 70 1012.0
20260505010158 66 314 3.0 7.0 0.00 0.00 0.00 69 1012.0
20260505005658 67 308 2.0 9.0 0.00 0.00 0.00 68 1012.0
20260505005156 67 322 4.0 7.0 0.00 0.00 0.00 68 1012.0
20260505004657 68 330 4.0 8.0 0.00 0.00 0.00 66 1012.0
20260505004156 68 290 1.0 4.0 0.00 0.00 0.00 65 1012.0
20260505003656 69 270 2.0 3.0 0.00 0.00 0.00 64 1012.0
20260505003158 69 310 2.0 4.0 0.00 0.00 0.00 65 1012.0
20260505002657 68 317 1.0 3.0 0.00 0.00 0.00 65 1012.0
20260505002156 68 322 4.0 9.0 0.00 0.00 0.00 66 1012.0
20260505001656 69 282 5.0 9.0 0.00 0.00 0.00 64 1012.0
20260505001156 69 308 5.0 8.0 0.00 0.00 0.00 64 1012.0
20260505000658 69 334 2.0 4.0 0.00 0.00 0.00 65 1012.0
20260505000157 69 290 5.0 9.0 0.00 0.00 0.00 64 1012.0
20260504235656 69 316 2.0 4.0 0.00 0.00 0.00 64 1012.0
20260504235156 69 336 5.0 7.0 0.00 0.00 0.00 65 1012.0
20260504234657 70 323 5.0 12.0 0.00 0.00 0.00 63 1012.0
20260504234156 71 268 6.0 9.0 0.00 0.00 0.00 63 1012.0
20260504233656 71 309 2.0 3.0 0.00 0.00 0.00 63 1012.0
20260504233156 72 319 4.0 6.0 0.00 0.00 0.00 61 1012.0
20260504232656 71 319 2.0 4.0 0.00 0.00 0.00 61 1012.0
20260504232156 71 281 3.0 6.0 0.00 0.00 0.00 62 1012.0
20260504231657 71 303 1.0 3.0 0.00 0.00 0.00 62 1012.0
20260504231156 71 313 4.0 8.0 0.00 0.00 0.00 63 1012.0
20260504230656 71 299 5.0 10.0 0.00 0.00 0.00 62 1012.0
20260504230156 71 320 4.0 7.0 0.00 0.00 0.00 62 1012.0
20260504225656 71 294 2.0 8.0 0.00 0.00 0.00 61 1012.0
20260504225156 72 264 3.0 6.0 0.00 0.00 0.00 61 1012.0
20260504224656 72 233 2.0 4.0 0.00 0.00 0.00 62 1012.0
20260504224156 73 207 1.0 3.0 0.00 0.00 0.00 61 1012.0
20260504223657 73 258 1.0 2.0 0.00 0.00 0.00 59 1012.0
20260504223156 72 254 2.0 3.0 0.00 0.00 0.00 60 1013.0
20260504222656 72 286 2.0 4.0 0.00 0.00 0.00 60 1013.0
20260504222156 72 242 2.0 4.0 0.00 0.00 0.00 60 1013.0
20260504221656 72 237 2.0 3.0 0.00 0.00 0.00 61 1013.0
20260504221156 72 324 4.0 6.0 0.00 0.00 0.00 60 1013.0
20260504220656 73 321 5.0 7.0 0.00 0.00 0.00 60 1013.0
20260504220157 73 328 2.0 4.0 0.00 0.00 0.00 59 1013.0
20260504215657 73 255 2.0 4.0 0.00 0.00 0.00 59 1013.0
20260504215156 72 317 1.0 4.0 0.00 0.00 0.00 59 1013.0
20260504214657 71 267 1.0 2.0 0.00 0.00 0.00 62 1013.0
20260504214157 71 7 2.0 4.0 0.00 0.00 0.00 60 1013.0
20260504213656 72 331 2.0 5.0 0.00 0.00 0.00 60 1013.0
20260504213156 72 333 1.0 3.0 0.00 0.00 0.00 60 1013.0
20260504212657 71 191 2.0 3.0 0.00 0.00 0.00 60 1013.0
20260504212156 70 257 2.0 3.0 0.00 0.00 0.00 63 1013.0
20260504211656 70 305 3.0 8.0 0.00 0.00 0.00 64 1013.0